When you browse on this site, cookies collect data to enhance your experience and personalize the content and advertising you see.
Visit our Privacy Policy to learn more. By continuing to use the site, you agree to this use of cookies and data.
EN

Hourly Weather Godziejewo

Today, 28 September, Monday

Time Temperature Precipitation Wind Pressure Humidity
00:00 +10°C° 0 mm 4 mps 742 mmHg 88%
01:00 +10°C° 0 mm 4 mps 743 mmHg 88%
02:00 +8°C° 0 mm 4 mps 744 mmHg 89%
03:00 +9°C° 0 mm 3 mps 744 mmHg 91%
04:00 +8°C° 0 mm 3 mps 744 mmHg 93%
05:00 +8°C° 0 mm 2 mps 744 mmHg 95%
06:00 +8°C° 0 mm 3 mps 745 mmHg 92%
07:00 +9°C° 0 mm 3 mps 745 mmHg 89%
08:00 +9°C° 0 mm 3 mps 746 mmHg 87%
09:00 +11°C° 0 mm 3 mps 746 mmHg 78%
10:00 +12°C° 0 mm 3 mps 746 mmHg 70%
11:00 +14°C° 0 mm 3 mps 747 mmHg 62%
12:00 +16°C° 0 mm 3 mps 747 mmHg 59%
13:00 +16°C° 0 mm 2 mps 747 mmHg 55%
14:00 +17°C° 0 mm 2 mps 746 mmHg 52%
15:00 +17°C° 0 mm 2 mps 746 mmHg 54%
16:00 +16°C° 0 mm 2 mps 746 mmHg 57%
17:00 +16°C° 0 mm 2 mps 746 mmHg 60%
18:00 +15°C° 0 mm 2 mps 746 mmHg 64%
19:00 +13°C° 0 mm 2 mps 746 mmHg 67%
20:00 +12°C° 0 mm 2 mps 746 mmHg 71%
21:00 +10°C° 0 mm 2 mps 746 mmHg 74%
22:00 +10°C° 0 mm 2 mps 747 mmHg 78%
23:00 +9°C° 0 mm 2 mps 747 mmHg 81%

Tomorrow, 29 September, Tuesday

Time Temperature Precipitation Wind Pressure Humidity
00:00 +9°C° 0 mm 2 mps 747 mmHg 82%
01:00 +9°C° 0 mm 2 mps 747 mmHg 83%
02:00 +9°C° 0 mm 3 mps 747 mmHg 83%
03:00 +9°C° 0 mm 3 mps 746 mmHg 84%
04:00 +9°C° 0 mm 3 mps 746 mmHg 84%
05:00 +9°C° 0 mm 3 mps 745 mmHg 85%
06:00 +8°C° 0 mm 4 mps 746 mmHg 83%
07:00 +10°C° 0 mm 4 mps 746 mmHg 81%
08:00 +10°C° 0 mm 4 mps 746 mmHg 79%
09:00 +12°C° 0 mm 4 mps 746 mmHg 74%
10:00 +13°C° 0 mm 4 mps 746 mmHg 70%
11:00 +16°C° 0 mm 3 mps 746 mmHg 66%
12:00 +17°C° 0 mm 3 mps 746 mmHg 63%
13:00 +18°C° 0 mm 3 mps 746 mmHg 61%
14:00 +19°C° 0 mm 3 mps 746 mmHg 59%
15:00 +18°C° 0 mm 3 mps 745 mmHg 62%
16:00 +17°C° 0 mm 2 mps 745 mmHg 65%
17:00 +16°C° 0 mm 2 mps 745 mmHg 69%
18:00 +15°C° 0 mm 2 mps 745 mmHg 70%
19:00 +15°C° 0 mm 2 mps 745 mmHg 71%
20:00 +13°C° 0 mm 3 mps 745 mmHg 73%
21:00 +13°C° 0 mm 3 mps 746 mmHg 74%
22:00 +13°C° 0 mm 3 mps 746 mmHg 76%
23:00 +12°C° 0 mm 3 mps 746 mmHg 77%

Day after tomorrow, 30 September, Wednesday

Time Temperature Precipitation Wind Pressure Humidity
00:00 +11°C° 0 mm 3 mps 745 mmHg 82%
01:00 +11°C° 0 mm 3 mps 745 mmHg 86%
02:00 +10°C° 0 mm 3 mps 745 mmHg 90%
03:00 +10°C° 0 mm 3 mps 745 mmHg 90%
04:00 +9°C° 0 mm 3 mps 745 mmHg 91%
05:00 +8°C° 0 mm 4 mps 745 mmHg 91%
06:00 +10°C° 0 mm 4 mps 745 mmHg 89%
07:00 +10°C° 0 mm 4 mps 745 mmHg 88%
08:00 +10°C° 0 mm 5 mps 745 mmHg 87%
09:00 +12°C° 0 mm 5 mps 744 mmHg 81%
10:00 +14°C° 0 mm 5 mps 744 mmHg 76%
11:00 +15°C° 0 mm 5 mps 744 mmHg 70%
12:00 +16°C° 0 mm 5 mps 744 mmHg 68%
13:00 +17°C° 0 mm 5 mps 744 mmHg 65%
14:00 +19°C° 0 mm 5 mps 744 mmHg 63%
15:00 +17°C° 0 mm 5 mps 744 mmHg 65%
16:00 +18°C° 0 mm 4 mps 744 mmHg 67%
17:00 +17°C° 0 mm 4 mps 743 mmHg 69%
18:00 +15°C° 0 mm 4 mps 744 mmHg 72%
19:00 +14°C° 0 mm 4 mps 744 mmHg 75%
20:00 +13°C° 0 mm 4 mps 744 mmHg 78%
21:00 +13°C° 0 mm 3 mps 744 mmHg 78%
22:00 +13°C° 0 mm 3 mps 744 mmHg 78%
23:00 +13°C° 0 mm 3 mps 744 mmHg 77%

1 October, Thursday

Time Temperature Precipitation Wind Pressure Humidity
00:00 +12°C° 0 mm 3 mps 743 mmHg 81%
01:00 +11°C° 0 mm 3 mps 743 mmHg 84%
02:00 +10°C° 0 mm 2 mps 743 mmHg 88%
03:00 +10°C° 0 mm 3 mps 743 mmHg 87%
04:00 +9°C° 0 mm 3 mps 743 mmHg 86%
05:00 +9°C° 0 mm 3 mps 743 mmHg 85%
06:00 +9°C° 0 mm 3 mps 743 mmHg 83%
07:00 +9°C° 0 mm 3 mps 743 mmHg 80%
08:00 +8°C° 0 mm 4 mps 742 mmHg 78%
09:00 +11°C° 0 mm 4 mps 742 mmHg 70%
10:00 +13°C° 0 mm 4 mps 742 mmHg 63%
11:00 +15°C° 0 mm 4 mps 742 mmHg 55%
12:00 +15°C° 0 mm 4 mps 742 mmHg 54%
13:00 +17°C° 0 mm 4 mps 742 mmHg 53%
14:00 +17°C° 0 mm 5 mps 742 mmHg 52%
15:00 +17°C° 0 mm 4 mps 742 mmHg 56%
16:00 +17°C° 0 mm 4 mps 741 mmHg 61%
17:00 +15°C° 0 mm 4 mps 741 mmHg 65%
18:00 +14°C° 0 mm 4 mps 741 mmHg 69%
19:00 +13°C° 0 mm 4 mps 742 mmHg 73%
20:00 +12°C° 0 mm 4 mps 742 mmHg 76%
21:00 +12°C° 0 mm 3 mps 742 mmHg 79%
22:00 +12°C° 0 mm 3 mps 742 mmHg 82%
23:00 +11°C° 0 mm 3 mps 741 mmHg 84%

2 October, Friday

Time Temperature Precipitation Wind Pressure Humidity
00:00 +11°C° 0 mm 3 mps 741 mmHg 88%
01:00 +10°C° 0 mm 3 mps 741 mmHg 91%
02:00 +9°C° 0 mm 3 mps 741 mmHg 95%
03:00 +9°C° 0 mm 3 mps 741 mmHg 95%
04:00 +9°C° 0 mm 3 mps 741 mmHg 95%
05:00 +9°C° 0 mm 3 mps 741 mmHg 95%
06:00 +8°C° 0 mm 4 mps 741 mmHg 92%
07:00 +10°C° 0 mm 4 mps 740 mmHg 89%
08:00 +10°C° 0 mm 4 mps 740 mmHg 87%
09:00 +10°C° 0 mm 5 mps 740 mmHg 81%
10:00 +13°C° 0 mm 5 mps 740 mmHg 76%
11:00 +14°C° 0 mm 5 mps 740 mmHg 71%
12:00 +14°C° 0 mm 5 mps 740 mmHg 72%
13:00 +14°C° 0 mm 5 mps 740 mmHg 74%
14:00 +14°C° 0 mm 6 mps 740 mmHg 76%
15:00 +14°C° 0 mm 5 mps 740 mmHg 77%
16:00 +13°C° 0 mm 5 mps 740 mmHg 78%
17:00 +13°C° 0 mm 5 mps 740 mmHg 78%
18:00 +13°C° 0 mm 4 mps 740 mmHg 79%
19:00 +13°C° 0 mm 4 mps 740 mmHg 80%
20:00 +13°C° 0 mm 4 mps 740 mmHg 80%
21:00 +12°C° 0 mm 4 mps 740 mmHg 84%
22:00 +12°C° 0 mm 4 mps 740 mmHg 88%
23:00 +11°C° 0 mm 4 mps 740 mmHg 91%

3 October, Saturday

Time Temperature Precipitation Wind Pressure Humidity
00:00 +11°C° 0 mm 4 mps 740 mmHg 93%
01:00 +11°C° 0 mm 4 mps 740 mmHg 94%
02:00 +10°C° 0 mm 4 mps 740 mmHg 96%
03:00 +10°C° 0 mm 4 mps 739 mmHg 96%
04:00 +9°C° 0 mm 5 mps 739 mmHg 96%
05:00 +10°C° 0 mm 5 mps 739 mmHg 96%
06:00 +10°C° 0 mm 5 mps 739 mmHg 93%
07:00 +11°C° 0 mm 6 mps 739 mmHg 89%
08:00 +11°C° 0 mm 6 mps 739 mmHg 86%
09:00 +13°C° 0 mm 6 mps 739 mmHg 83%
10:00 +13°C° 0 mm 6 mps 739 mmHg 80%
11:00 +14°C° 0 mm 6 mps 739 mmHg 77%
12:00 +15°C° 0 mm 7 mps 739 mmHg 74%
13:00 +15°C° 0 mm 7 mps 739 mmHg 71%
14:00 +16°C° 0 mm 7 mps 738 mmHg 68%
15:00 +16°C° 0 mm 7 mps 738 mmHg 69%
16:00 +15°C° 0 mm 7 mps 738 mmHg 71%
17:00 +15°C° 0 mm 7 mps 738 mmHg 72%
18:00 +15°C° 0 mm 7 mps 738 mmHg 75%
19:00 +14°C° 0 mm 7 mps 738 mmHg 77%
20:00 +14°C° 0 mm 7 mps 738 mmHg 79%
21:00 +14°C° 0 mm 7 mps 738 mmHg 82%
22:00 +14°C° 0 mm 7 mps 738 mmHg 84%
23:00 +14°C° 0 mm 7 mps 737 mmHg 86%
Show more